| time (UTC) | temp C | wind direction | speed KPH | gust KPH | rain 1hr cm | rain 24hr cm | rain mn cm | humidity % | barometer mb |
| 20260502210027 | 20 | 332 | 8.0 | 9.7 | 0.00 | 0.00 | 0.00 | 34 | 1009.0 |
| 20260502205050 | 20 | 267 | 8.0 | 12.9 | 0.00 | 0.00 | 0.00 | 35 | 1009.0 |
| 20260502204016 | 20 | 254 | 8.0 | 11.3 | 0.00 | 0.00 | 0.00 | 35 | 1009.1 |
| 20260502203020 | 18 | 259 | 4.8 | 9.7 | 0.00 | 0.00 | 0.00 | 36 | 1009.1 |
| 20260502202025 | 19 | 284 | 6.4 | 8.0 | 0.00 | 0.00 | 0.00 | 35 | 1009.3 |
| 20260502201029 | 18 | 313 | 6.4 | 9.7 | 0.00 | 0.00 | 0.00 | 35 | 1009.4 |
| 20260502200032 | 18 | 247 | 6.4 | 11.3 | 0.00 | 0.00 | 0.00 | 35 | 1009.4 |
| 20260502195059 | 19 | 42 | 3.2 | 4.8 | 0.00 | 0.00 | 0.00 | 34 | 1009.5 |
| 20260502194022 | 18 | 355 | 4.8 | 8.0 | 0.00 | 0.00 | 0.00 | 35 | 1009.5 |
| 20260502193107 | 19 | 17 | 4.8 | 6.4 | 0.00 | 0.00 | 0.00 | 34 | 1009.5 |
| 20260502192045 | 18 | 212 | 3.2 | 4.8 | 0.00 | 0.00 | 0.00 | 35 | 1009.5 |
| 20260502191017 | 18 | 67 | 4.8 | 8.0 | 0.00 | 0.00 | 0.00 | 35 | 1009.6 |
| 20260502190021 | 18 | 326 | 6.4 | 8.0 | 0.00 | 0.00 | 0.00 | 34 | 1009.8 |
| 20260502185019 | 17 | 10 | 4.8 | 6.4 | 0.00 | 0.00 | 0.00 | 35 | 1009.8 |
| 20260502184016 | 16 | 95 | 4.8 | 6.4 | 0.00 | 0.00 | 0.00 | 38 | 1009.8 |
| 20260502183015 | 16 | 91 | 4.8 | 6.4 | 0.00 | 0.00 | 0.00 | 39 | 1009.7 |
| 20260502182019 | 16 | 115 | 6.4 | 8.0 | 0.00 | 0.00 | 0.00 | 37 | 1009.8 |
| 20260502181023 | 15 | 53 | 4.8 | 6.4 | 0.00 | 0.00 | 0.00 | 41 | 1009.9 |
| 20260502164044 | 11 | 218 | 0.0 | 3.2 | 0.00 | 0.00 | 0.00 | 47 | 1010.3 |
| 20260502163048 | 11 | 215 | 3.2 | 4.8 | 0.00 | 0.00 | 0.00 | 47 | 1010.7 |
| 20260502162052 | 11 | 219 | 3.2 | 6.4 | 0.00 | 0.00 | 0.00 | 48 | 1010.4 |
| 20260502161038 | 11 | 286 | 1.6 | 3.2 | 0.00 | 0.00 | 0.00 | 48 | 1010.6 |
| 20260502152020 | 11 | 190 | 4.8 | 6.4 | 0.00 | 0.00 | 0.00 | 48 | 1010.5 |
| 20260502151024 | 11 | 203 | 4.8 | 8.0 | 0.00 | 0.00 | 0.00 | 47 | 1010.4 |
| 20260502123018 | 5 | 163 | 6.4 | 9.7 | 0.00 | 0.00 | 0.00 | 56 | 1011.5 |
| 20260502122043 | 5 | 159 | 6.4 | 9.7 | 0.00 | 0.00 | 0.00 | 56 | 1011.7 |
| 20260502121046 | 5 | 169 | 6.4 | 9.7 | 0.00 | 0.00 | 0.00 | 57 | 1011.8 |
| 20260502115016 | 4 | 165 | 6.4 | 8.0 | 0.00 | 0.00 | 0.00 | 59 | 1012.2 |
| 20260502114020 | 3 | 167 | 4.8 | 8.0 | 0.00 | 0.00 | 0.00 | 60 | 1012.2 |
| 20260502113024 | 3 | 163 | 4.8 | 6.4 | 0.00 | 0.00 | 0.00 | 60 | 1012.5 |
| 20260502112029 | 3 | 160 | 4.8 | 6.4 | 0.00 | 0.00 | 0.00 | 60 | 1012.5 |
| 20260502111033 | 3 | 152 | 4.8 | 6.4 | 0.00 | 0.00 | 0.00 | 60 | 1012.7 |
| 20260502110018 | 3 | 177 | 4.8 | 6.4 | 0.00 | 0.00 | 0.00 | 59 | 1012.8 |
| 20260502105023 | 3 | 172 | 6.4 | 8.0 | 0.00 | 0.00 | 0.00 | 58 | 1012.9 |
| 20260502104027 | 3 | 166 | 4.8 | 6.4 | 0.00 | 0.00 | 0.00 | 60 | 1013.0 |
| 20260502103031 | 3 | 168 | 4.8 | 4.8 | 0.00 | 0.00 | 0.00 | 60 | 1013.2 |
| 20260502102017 | 3 | 156 | 4.8 | 6.4 | 0.00 | 0.00 | 0.00 | 60 | 1013.5 |
| 20260502101021 | 3 | 153 | 4.8 | 6.4 | 0.00 | 0.00 | 0.00 | 60 | 1013.7 |
| 20260502091027 | 3 | 151 | 4.8 | 6.4 | 0.00 | 0.00 | 0.00 | 58 | 1014.7 |
| 20260502071022 | 3 | 152 | 3.2 | 4.8 | 0.00 | 0.00 | 0.00 | 55 | 1016.3 |
| 20260502070026 | 3 | 155 | 3.2 | 4.8 | 0.00 | 0.00 | 0.00 | 55 | 1016.4 |
| 20260502065031 | 3 | 163 | 3.2 | 4.8 | 0.00 | 0.00 | 0.00 | 55 | 1016.5 |
| 20260502064057 | 3 | 158 | 3.2 | 6.4 | 0.00 | 0.00 | 0.00 | 55 | 1016.6 |
| 20260502063101 | 3 | 144 | 3.2 | 4.8 | 0.00 | 0.00 | 0.00 | 55 | 1016.8 |
| 20260502062045 | 3 | 161 | 3.2 | 4.8 | 0.00 | 0.00 | 0.00 | 56 | 1016.8 |
| 20260502061029 | 2 | 151 | 3.2 | 4.8 | 0.00 | 0.00 | 0.00 | 58 | 1017.1 |
| 20260502060015 | 2 | 150 | 3.2 | 3.2 | 0.00 | 0.00 | 0.00 | 57 | 1017.1 |
| 20260502055019 | 2 | 169 | 0.0 | 3.2 | 0.00 | 0.00 | 0.00 | 55 | 1017.2 |
| 20260502054023 | 3 | 180 | 0.0 | 3.2 | 0.00 | 0.00 | 0.00 | 53 | 1017.3 |
| 20260502053027 | 3 | 184 | 3.2 | 4.8 | 0.00 | 0.00 | 0.00 | 52 | 1017.3 |
| 20260502052051 | 3 | 158 | 3.2 | 4.8 | 0.00 | 0.00 | 0.00 | 53 | 1017.5 |
| 20260502051018 | 2 | 118 | 0.0 | 1.6 | 0.00 | 0.00 | 0.00 | 55 | 1017.6 |
| 20260502050022 | 2 | 0.0 | 0.0 | 0.00 | 0.00 | 0.00 | 56 | 1017.7 | |
| 20260502045025 | 3 | 0.0 | 0.0 | 0.00 | 0.00 | 0.00 | 54 | 1017.7 | |
| 20260502044030 | 3 | 0.0 | 0.0 | 0.00 | 0.00 | 0.00 | 52 | 1017.7 | |
| 20260502043036 | 3 | 0.0 | 0.0 | 0.00 | 0.00 | 0.00 | 51 | 1017.8 | |
| 20260502042020 | 4 | 0.0 | 0.0 | 0.00 | 0.00 | 0.00 | 50 | 1017.8 | |
| 20260502041024 | 5 | 0.0 | 0.0 | 0.00 | 0.00 | 0.00 | 48 | 1018.0 | |
| 20260502040028 | 5 | 127 | 3.2 | 3.2 | 0.00 | 0.00 | 0.00 | 47 | 1018.0 |
| 20260502035026 | 5 | 125 | 3.2 | 3.2 | 0.00 | 0.00 | 0.00 | 46 | 1017.9 |
| 20260502034019 | 6 | 126 | 3.2 | 3.2 | 0.00 | 0.00 | 0.00 | 46 | 1017.9 |
| 20260502033022 | 6 | 115 | 3.2 | 4.8 | 0.00 | 0.00 | 0.00 | 45 | 1018.0 |
| 20260502032021 | 6 | 119 | 3.2 | 4.8 | 0.00 | 0.00 | 0.00 | 44 | 1018.0 |
| 20260502031018 | 6 | 113 | 3.2 | 4.8 | 0.00 | 0.00 | 0.00 | 44 | 1018.0 |
| 20260502030016 | 6 | 113 | 3.2 | 4.8 | 0.00 | 0.00 | 0.00 | 46 | 1018.0 |
| 20260502025020 | 6 | 113 | 1.6 | 4.8 | 0.00 | 0.00 | 0.00 | 47 | 1017.9 |
| 20260502024126 | 6 | 0.0 | 0.0 | 0.00 | 0.00 | 0.00 | 46 | 1017.9 | |
| 20260502023029 | 6 | 0.0 | 0.0 | 0.00 | 0.00 | 0.00 | 46 | 1017.9 | |
| 20260502022036 | 7 | 0.0 | 0.0 | 0.00 | 0.00 | 0.00 | 46 | 1017.9 | |
| 20260502021019 | 7 | 0.0 | 0.0 | 0.00 | 0.00 | 0.00 | 44 | 1018.0 | |
| 20260502020123 | 8 | 0.0 | 0.0 | 0.00 | 0.00 | 0.00 | 43 | 1018.0 | |
| 20260502015027 | 9 | 113 | 0.0 | 1.6 | 0.00 | 0.00 | 0.00 | 40 | 1018.0 |
| 20260502014031 | 10 | 124 | 1.6 | 3.2 | 0.00 | 0.00 | 0.00 | 39 | 1018.0 |
| 20260502013037 | 11 | 113 | 3.2 | 3.2 | 0.00 | 0.00 | 0.00 | 37 | 1018.1 |
| 20260502012021 | 12 | 113 | 1.6 | 3.2 | 0.00 | 0.00 | 0.00 | 36 | 1018.2 |
| 20260502011026 | 12 | 125 | 3.2 | 3.2 | 0.00 | 0.00 | 0.00 | 34 | 1018.3 |
| 20260502010029 | 13 | 132 | 3.2 | 3.2 | 0.00 | 0.00 | 0.00 | 33 | 1018.4 |
| 20260502005036 | 13 | 145 | 3.2 | 4.8 | 0.00 | 0.00 | 0.00 | 33 | 1018.4 |
| 20260502004020 | 14 | 140 | 3.2 | 4.8 | 0.00 | 0.00 | 0.00 | 31 | 1018.4 |
| 20260502003044 | 16 | 143 | 3.2 | 3.2 | 0.00 | 0.00 | 0.00 | 29 | 1018.5 |
| 20260502002028 | 16 | 126 | 3.2 | 6.4 | 0.00 | 0.00 | 0.00 | 29 | 1018.7 |
| 20260502001032 | 15 | 106 | 1.6 | 3.2 | 0.00 | 0.00 | 0.00 | 28 | 1018.7 |
| 20260502000018 | 16 | 243 | 1.6 | 4.8 | 0.00 | 0.00 | 0.00 | 27 | 1018.8 |
| 20260501235022 | 17 | 218 | 4.8 | 6.4 | 0.00 | 0.00 | 0.00 | 27 | 1018.9 |
| 20260501234026 | 17 | 278 | 4.8 | 8.0 | 0.00 | 0.00 | 0.00 | 26 | 1019.0 |
| 20260501233031 | 17 | 118 | 3.2 | 6.4 | 0.00 | 0.00 | 0.00 | 26 | 1019.1 |
| 20260501232016 | 17 | 25 | 3.2 | 4.8 | 0.00 | 0.00 | 0.00 | 26 | 1019.1 |
| 20260501231020 | 16 | 309 | 4.8 | 8.0 | 0.00 | 0.00 | 0.00 | 28 | 1019.3 |
| 20260501230025 | 15 | 248 | 4.8 | 8.0 | 0.00 | 0.00 | 0.00 | 28 | 1019.4 |
| 20260501225029 | 15 | 305 | 3.2 | 4.8 | 0.00 | 0.00 | 0.00 | 30 | 1019.5 |
| 20260501224027 | 15 | 1 | 3.2 | 6.4 | 0.00 | 0.00 | 0.00 | 30 | 1019.5 |
| 20260501223019 | 15 | 306 | 4.8 | 12.9 | 0.00 | 0.00 | 0.00 | 30 | 1019.5 |
| 20260501222023 | 15 | 251 | 8.0 | 9.7 | 0.00 | 0.00 | 0.00 | 29 | 1019.6 |
| 20260501221021 | 15 | 265 | 4.8 | 9.7 | 0.00 | 0.00 | 0.00 | 30 | 1019.7 |
| 20260501220019 | 13 | 141 | 3.2 | 8.0 | 0.00 | 0.00 | 0.00 | 30 | 1019.9 |
| 20260501215017 | 13 | 223 | 4.8 | 9.7 | 0.00 | 0.00 | 0.00 | 30 | 1020.0 |
| 20260501214016 | 15 | 266 | 6.4 | 11.3 | 0.00 | 0.00 | 0.00 | 30 | 1020.1 |
| 20260501213026 | 14 | 266 | 8.0 | 11.3 | 0.00 | 0.00 | 0.00 | 30 | 1020.2 |
| 20260501212029 | 14 | 266 | 9.7 | 12.9 | 0.00 | 0.00 | 0.00 | 31 | 1020.4 |
| 20260501211015 | 14 | 270 | 9.7 | 11.3 | 0.00 | 0.00 | 0.00 | 31 | 1020.4 |